Location: Akgöl Batakl???
(38.9482°N, 31.8837°E)
Time: 14:49:48
(UTC+00:00)

Cosmos 2233 Rocket - Pass Details

Date: 08 May 2026
Orbit: 952 x 990 km, 82.9° (Epoch: 10 June)

Event Time Altitude Azimuth Distance (km) Brightness Sun altitude
Exits shadow 19:06:48 33° 181° (S) 1,584 4.7 -22.2°
Maximum altitude 19:09:51 84° 95° (E) 980 3.9 -22.6°
Drops below altitude 10° 19:16:03 10° 8° (N) 2,706 6.8 -23.4°
Sets 19:18:33 0° 8° (N) 3,651 7.6 -23.7°
